QPF
0.11 0.25 0.42 0.67 1.03 1.34 1.68 2.10 2.49 2.51 2.13 1.61 1.23 0.92 0.58 0.34 0.19 0.10 0.07 0.07 0.04 0.02 0.01 0.00 0.00 0.00 0.00 0.00 0.00 0.00 0.00 0.00 0.00 0.00 0.00 0.00 0.00 0.00 0.01 0.04 0.03 0.02 0.04
0.14 0.30 0.47 0.70 0.94 1.16 1.36 1.60 1.53 1.30 1.07 0.86 0.75 0.47 0.29 0.20 0.12 0.08 0.07 0.04 0.03 0.01 0.01 0.00 0.00 0.00 0.00 0.00 0.00 0.00 0.00 0.00 0.00 0.00 0.00 0.00 0.00 0.00 0.00 0.01 0.02 0.04 0.06
0.15 0.25 0.43 0.58 0.61 0.70 0.78 0.83 0.72 0.54 0.47 0.42 0.34 0.28 0.23 0.14 0.07 0.04 0.05 0.04 0.03 0.02 0.01 0.01 0.01 0.00 0.00 0.00 0.00 0.00 0.00 0.00 0.00 0.00 0.00 0.00 0.00 0.00 0.00 0.00 0.01 0.04 0.07
0.11 0.16 0.22 0.26 0.28 0.36 0.36 0.35 0.30 0.22 0.20 0.18 0.14 0.14 0.12 0.09 0.06 0.05 0.05 0.07 0.06 0.05 0.04 0.03 0.02 0.01 0.01 0.00 0.00 0.00 0.00 0.00 0.00 0.00 0.00 0.01 0.01 0.01 0.00 0.00 0.00 0.01 0.05
0.05 0.06 0.08 0.10 0.08 0.13 0.15 0.16 0.19 0.17 0.16 0.16 0.15 0.13 0.11 0.09 0.07 0.06 0.07 0.09 0.14 0.12 0.06 0.05 0.04 0.03 0.02 0.01 0.01 0.00 0.00 0.00 0.00 0.00 0.00 0.00 0.01 0.01 0.01 0.00 0.00 0.00 0.01
0.04 0.02 0.02 0.02 0.03 0.04 0.07 0.14 0.17 0.14 0.14 0.16 0.16 0.13 0.10 0.10 0.09 0.10 0.11 0.10 0.10 0.10 0.10 0.09 0.06 0.04 0.04 0.03 0.01 0.01 0.00 0.00 0.00 0.00 0.00 0.00 0.00 0.00 0.01 0.01 0.00 0.00 0.01
0.03 0.01 0.01 0.01 0.02 0.02 0.03 0.06 0.09 0.12 0.12 0.11 0.12 0.10 0.09 0.10 0.10 0.10 0.09 0.09 0.09 0.09 0.09 0.10 0.08 0.05 0.05 0.04 0.02 0.02 0.01 0.00 0.00 0.00 0.00 0.00 0.00 0.01 0.01 0.02 0.01 0.01 0.01
0.03 0.01 0.01 0.01 0.01 0.01 0.01 0.02 0.03 0.03 0.04 0.05 0.05 0.05 0.06 0.07 0.08 0.08 0.08 0.08 0.08 0.08 0.08 0.09 0.09 0.08 0.07 0.06 0.05 0.03 0.02 0.01 0.01 0.00 0.00 0.00 0.00 0.01 0.01 0.02 0.02 0.01 0.01
0.04 0.02 0.00 0.00 0.00 0.00 0.00 0.00 0.01 0.01 0.01 0.01 0.01 0.02 0.02 0.03 0.04 0.05 0.05 0.05 0.06 0.07 0.07 0.07 0.08 0.08 0.07 0.06 0.05 0.04 0.03 0.03 0.01 0.00 0.00 0.00 0.00 0.01 0.01 0.01 0.02 0.03 0.02
0.02 0.01 0.00 0.00 0.00 0.00 0.00 0.00 0.00 0.00 0.00 0.00 0.00 0.00 0.00 0.01 0.01 0.01 0.01 0.02 0.03 0.04 0.04 0.05 0.05 0.05 0.04 0.04 0.04 0.04 0.03 0.02 0.01 0.01 0.00 0.00 0.00 0.00 0.01 0.02 0.03 0.05 0.06
0.02 0.00 0.00 0.00 0.00 0.00 0.00 0.00 0.00 0.00 0.00 0.00 0.00 0.00 0.00 0.00 0.00 0.00 0.00 0.00 0.01 0.01 0.01 0.02 0.02 0.03 0.03 0.03 0.03 0.02 0.02 0.01 0.01 0.01 0.01 0.00 0.00 0.00 0.00 0.01 0.02 0.04 0.07
0.00 0.00 0.00 0.00 0.00 0.00 0.00 0.00 0.00 0.00 0.00 0.00 0.00 0.00 0.00 0.00 0.00 0.00 0.00 0.00 0.00 0.00 0.00 0.00 0.01 0.01 0.02 0.03 0.03 0.03 0.02 0.02 0.01 0.02 0.02 0.01 0.00 0.00 0.00 0.00 0.02 0.03 0.06
0.00 0.00 0.00 0.00 0.00 0.00 0.00 0.00 0.00 0.00 0.00 0.00 0.00 0.00 0.00 0.00 0.00 0.00 0.00 0.00 0.00 0.00 0.00 0.00 0.00 0.00 0.01 0.02 0.03 0.03 0.04 0.04 0.03 0.02 0.01 0.01 0.00 0.00 0.00 0.00 0.01 0.01 0.04
0.00 0.00 0.00 0.00 0.00 0.00 0.00 0.00 0.00 0.00 0.00 0.00 0.00 0.00 0.00 0.00 0.00 0.00 0.00 0.00 0.00 0.00 0.00 0.00 0.00 0.00 0.01 0.02 0.03 0.03 0.04 0.04 0.03 0.02 0.01 0.01 0.00 0.00 0.00 0.00 0.00 0.01 0.02
0.00 0.00 0.00 0.00 0.00 0.00 0.00 0.00 0.00 0.00 0.00 0.00 0.00 0.00 0.00 0.00 0.00 0.00 0.00 0.00 0.00 0.00 0.00 0.00 0.00 0.00 0.01 0.01 0.02 0.03 0.04 0.04 0.04 0.02 0.02 0.01 0.00 0.00 0.00 0.00 0.00 0.01 0.01
0.00 0.00 0.00 0.00 0.00 0.00 0.00 0.00 0.00 0.00 0.00 0.00 0.00 0.00 0.00 0.00 0.00 0.00 0.00 0.01 0.01 0.01 0.01 0.01 0.01 0.01 0.00 0.01 0.01 0.02 0.04 0.05 0.05 0.04 0.03 0.01 0.01 0.00 0.00 0.00 0.01 0.01 0.02
0.00 0.00 0.00 0.00 0.00 0.00 0.00 0.00 0.00 0.00 0.00 0.00 0.00 0.00 0.00 0.00 0.00 0.00 0.01 0.01 0.01 0.01 0.01 0.01 0.01 0.01 0.00 0.01 0.01 0.02 0.04 0.06 0.07 0.06 0.05 0.03 0.01 0.00 0.00 0.00 0.01 0.01 0.02
0.00 0.00 0.00 0.00 0.00 0.00 0.00 0.00 0.00 0.00 0.00 0.00 0.00 0.00 0.00 0.00 0.00 0.01 0.01 0.01 0.01 0.01 0.01 0.01 0.01 0.00 0.00 0.01 0.02 0.03 0.04 0.07 0.09 0.08 0.07 0.04 0.02 0.01 0.00 0.00 0.01 0.00 0.01
0.00 0.00 0.00 0.00 0.00 0.00 0.00 0.00 0.00 0.00 0.00 0.00 0.00 0.01 0.01 0.01 0.01 0.01 0.01 0.01 0.01 0.01 0.01 0.01 0.01 0.01 0.00 0.01 0.02 0.04 0.06 0.10 0.14 0.13 0.11 0.07 0.04 0.02 0.01 0.01 0.01 0.01 0.02
0.00 0.00 0.00 0.00 0.00 0.00 0.00 0.00 0.01 0.01 0.01 0.01 0.02 0.02 0.02 0.02 0.01 0.01 0.01 0.01 0.01 0.01 0.01 0.01 0.01 0.01 0.01 0.01 0.02 0.04 0.09 0.17 0.22 0.22 0.17 0.13 0.07 0.03 0.01 0.00 0.01 0.02 0.02
0.00 0.00 0.00 0.00 0.00 0.00 0.01 0.02 0.02 0.02 0.02 0.02 0.02 0.02 0.02 0.02 0.01 0.01 0.01 0.01 0.01 0.01 0.01 0.01 0.01 0.02 0.01 0.01 0.01 0.04 0.10 0.22 0.31 0.34 0.28 0.20 0.11 0.04 0.01 0.01 0.01 0.02 0.02
0.00 0.00 0.00 0.00 0.00 0.01 0.02 0.02 0.02 0.02 0.02 0.02 0.02 0.02 0.02 0.02 0.01 0.02 0.02 0.02 0.02 0.01 0.01 0.01 0.01 0.01 0.01 0.01 0.01 0.03 0.11 0.26 0.38 0.44 0.40 0.28 0.16 0.07 0.02 0.01 0.02 0.02 0.02
0.00 0.00 0.00 0.01 0.01 0.01 0.01 0.02 0.02 0.02 0.02 0.03 0.02 0.02 0.02 0.02 0.02 0.03 0.02 0.02 0.02 0.01 0.01 0.01 0.02 0.02 0.02 0.02 0.02 0.04 0.13 0.29 0.43 0.55 0.54 0.37 0.22 0.11 0.03 0.02 0.03 0.02 0.01
0.00 0.00 0.01 0.01 0.01 0.01 0.01 0.02 0.02 0.03 0.04 0.04 0.03 0.02 0.03 0.03 0.03 0.03 0.04 0.03 0.02 0.02 0.02 0.02 0.03 0.03 0.02 0.03 0.03 0.04 0.15 0.34 0.48 0.60 0.61 0.44 0.25 0.12 0.04 0.02 0.02 0.01 0.01
0.00 0.01 0.02 0.02 0.02 0.02 0.02 0.02 0.03 0.05 0.06 0.05 0.04 0.04 0.04 0.04 0.04 0.04 0.04 0.04 0.03 0.03 0.02 0.02 0.03 0.03 0.02 0.03 0.03 0.06 0.17 0.39 0.57 0.60 0.57 0.47 0.25 0.11 0.04 0.02 0.02 0.01 0.01
0.01 0.02 0.03 0.03 0.03 0.03 0.03 0.03 0.04 0.06 0.06 0.06 0.05 0.05 0.05 0.05 0.05 0.05 0.04 0.03 0.02 0.01 0.01 0.01 0.02 0.03 0.01 0.01 0.03 0.09 0.21 0.40 0.60 0.62 0.50 0.37 0.20 0.08 0.03 0.01 0.01 0.01 0.01
MSLP
1011.65 1011.57 1011.46 1011.36 1011.26 1011.18 1011.12 1011.07 1011.01 1010.95 1010.85 1010.72 1010.56 1010.38 1010.19 1010.01 1009.86 1009.76 1009.73 1009.78 1009.91 1010.13 1010.41 1010.74 1011.10 1011.46 1011.78 1012.04 1012.22 1012.30 1012.26 1012.13 1011.90 1011.60 1011.26 1010.89 1010.53 1010.19 1009.89 1009.65 1009.45 1009.32 1009.24
1012.60 1012.37 1012.09 1011.80 1011.52 1011.27 1011.08 1010.94 1010.87 1010.84 1010.83 1010.82 1010.78 1010.69 1010.55 1010.37 1010.17 1009.97 1009.81 1009.72 1009.73 1009.84 1010.06 1010.38 1010.76 1011.17 1011.56 1011.90 1012.15 1012.28 1012.30 1012.19 1011.99 1011.70 1011.36 1011.00 1010.63 1010.29 1009.97 1009.69 1009.45 1009.26 1009.11
1013.30 1012.97 1012.58 1012.18 1011.78 1011.43 1011.15 1010.97 1010.89 1010.90 1010.95 1011.02 1011.06 1011.04 1010.93 1010.74 1010.47 1010.18 1009.90 1009.68 1009.56 1009.58 1009.73 1010.01 1010.39 1010.81 1011.24 1011.62 1011.92 1012.11 1012.17 1012.11 1011.94 1011.70 1011.41 1011.08 1010.74 1010.42 1010.10 1009.82 1009.55 1009.31 1009.10
1013.74 1013.37 1012.95 1012.50 1012.07 1011.69 1011.38 1011.18 1011.10 1011.12 1011.21 1011.31 1011.39 1011.39 1011.29 1011.07 1010.75 1010.37 1010.00 1009.67 1009.46 1009.38 1009.46 1009.69 1010.03 1010.44 1010.86 1011.25 1011.57 1011.78 1011.88 1011.86 1011.75 1011.57 1011.33 1011.07 1010.79 1010.51 1010.24 1009.96 1009.69 1009.41 1009.14
1013.94 1013.58 1013.19 1012.79 1012.38 1012.02 1011.72 1011.53 1011.44 1011.46 1011.54 1011.64 1011.71 1011.70 1011.58 1011.33 1010.98 1010.55 1010.11 1009.72 1009.43 1009.29 1009.29 1009.46 1009.74 1010.10 1010.48 1010.84 1011.14 1011.35 1011.46 1011.47 1011.41 1011.29 1011.13 1010.94 1010.74 1010.52 1010.29 1010.04 1009.77 1009.48 1009.18
1013.92 1013.63 1013.33 1013.01 1012.68 1012.38 1012.12 1011.93 1011.84 1011.83 1011.87 1011.94 1011.98 1011.94 1011.79 1011.53 1011.15 1010.72 1010.26 1009.84 1009.52 1009.32 1009.27 1009.37 1009.57 1009.85 1010.16 1010.45 1010.69 1010.87 1010.97 1011.00 1010.97 1010.90 1010.80 1010.68 1010.55 1010.39 1010.21 1010.00 1009.75 1009.46 1009.14
1013.74 1013.54 1013.35 1013.15 1012.92 1012.70 1012.48 1012.31 1012.20 1012.14 1012.14 1012.15 1012.13 1012.06 1011.90 1011.63 1011.28 1010.86 1010.43 1010.03 1009.71 1009.49 1009.40 1009.43 1009.55 1009.73 1009.93 1010.13 1010.29 1010.40 1010.46 1010.47 1010.46 1010.42 1010.36 1010.30 1010.21 1010.11 1009.97 1009.78 1009.56 1009.29 1008.98
1013.47 1013.37 1013.29 1013.19 1013.07 1012.91 1012.74 1012.57 1012.43 1012.33 1012.26 1012.21 1012.15 1012.05 1011.88 1011.64 1011.33 1010.97 1010.60 1010.26 1009.97 1009.76 1009.64 1009.61 1009.65 1009.72 1009.81 1009.89 1009.95 1009.98 1009.98 1009.96 1009.93 1009.89 1009.85 1009.81 1009.75 1009.67 1009.56 1009.40 1009.20 1008.96 1008.68
1013.17 1013.15 1013.16 1013.15 1013.09 1012.98 1012.83 1012.65 1012.48 1012.33 1012.21 1012.10 1012.00 1011.89 1011.73 1011.53 1011.29 1011.02 1010.74 1010.47 1010.24 1010.06 1009.93 1009.86 1009.81 1009.79 1009.77 1009.74 1009.69 1009.63 1009.56 1009.49 1009.42 1009.36 1009.32 1009.27 1009.21 1009.13 1009.02 1008.87 1008.69 1008.48 1008.25
1012.92 1012.94 1012.99 1013.01 1012.98 1012.88 1012.72 1012.53 1012.32 1012.13 1011.96 1011.82 1011.69 1011.57 1011.45 1011.30 1011.14 1010.96 1010.78 1010.60 1010.44 1010.29 1010.17 1010.07 1009.97 1009.86 1009.75 1009.62 1009.48 1009.33 1009.19 1009.07 1008.96 1008.87 1008.79 1008.71 1008.62 1008.52 1008.39 1008.24 1008.07 1007.90 1007.73
1012.77 1012.79 1012.81 1012.81 1012.75 1012.62 1012.43 1012.20 1011.96 1011.72 1011.52 1011.35 1011.22 1011.11 1011.01 1010.92 1010.83 1010.74 1010.64 1010.55 1010.46 1010.36 1010.26 1010.15 1010.01 1009.86 1009.68 1009.48 1009.27 1009.07 1008.87 1008.70 1008.55 1008.42 1008.29 1008.17 1008.04 1007.89 1007.73 1007.56 1007.40 1007.25 1007.14
1012.72 1012.67 1012.62 1012.54 1012.40 1012.20 1011.96 1011.68 1011.41 1011.15 1010.92 1010.74 1010.60 1010.50 1010.43 1010.38 1010.35 1010.32 1010.29 1010.27 1010.23 1010.18 1010.11 1010.01 1009.87 1009.70 1009.49 1009.26 1009.02 1008.79 1008.56 1008.36 1008.18 1008.01 1007.84 1007.67 1007.49 1007.29 1007.09 1006.89 1006.72 1006.59 1006.52
1012.74 1012.58 1012.40 1012.19 1011.94 1011.66 1011.34 1011.02 1010.71 1010.44 1010.20 1010.01 1009.88 1009.78 1009.72 1009.68 1009.67 1009.68 1009.70 1009.72 1009.74 1009.73 1009.70 1009.62 1009.51 1009.35 1009.15 1008.92 1008.68 1008.45 1008.22 1008.01 1007.81 1007.62 1007.42 1007.21 1006.98 1006.74 1006.50 1006.26 1006.07 1005.94 1005.90
1012.75 1012.44 1012.12 1011.77 1011.39 1011.00 1010.62 1010.25 1009.92 1009.64 1009.40 1009.21 1009.07 1008.96 1008.89 1008.85 1008.84 1008.85 1008.89 1008.94 1008.98 1009.02 1009.03 1009.00 1008.92 1008.80 1008.63 1008.44 1008.23 1008.02 1007.81 1007.61 1007.42 1007.22 1007.01 1006.77 1006.52 1006.24 1005.96 1005.70 1005.49 1005.35 1005.31
1012.68 1012.22 1011.74 1011.24 1010.74 1010.26 1009.82 1009.43 1009.09 1008.80 1008.57 1008.38 1008.22 1008.09 1008.00 1007.93 1007.89 1007.89 1007.92 1007.97 1008.04 1008.11 1008.16 1008.18 1008.15 1008.08 1007.97 1007.83 1007.66 1007.49 1007.31 1007.14 1006.96 1006.78 1006.57 1006.34 1006.08 1005.79 1005.49 1005.21 1004.98 1004.82 1004.78
1012.47 1011.87 1011.24 1010.62 1010.03 1009.48 1009.00 1008.59 1008.26 1007.98 1007.75 1007.55 1007.38 1007.22 1007.08 1006.97 1006.89 1006.86 1006.87 1006.92 1007.00 1007.09 1007.18 1007.25 1007.28 1007.26 1007.20 1007.10 1006.98 1006.84 1006.70 1006.56 1006.42 1006.26 1006.09 1005.88 1005.64 1005.37 1005.08 1004.81 1004.57 1004.40 1004.34
1012.11 1011.39 1010.66 1009.94 1009.28 1008.70 1008.21 1007.80 1007.48 1007.21 1006.99 1006.78 1006.58 1006.39 1006.20 1006.04 1005.91 1005.84 1005.82 1005.86 1005.94 1006.06 1006.18 1006.28 1006.36 1006.38 1006.36 1006.30 1006.21 1006.10 1005.99 1005.88 1005.77 1005.66 1005.53 1005.37 1005.19 1004.97 1004.73 1004.49 1004.27 1004.11 1004.05
1011.61 1010.81 1010.01 1009.26 1008.57 1007.97 1007.49 1007.09 1006.79 1006.53 1006.31 1006.08 1005.86 1005.62 1005.39 1005.17 1005.00 1004.88 1004.84 1004.86 1004.95 1005.07 1005.22 1005.35 1005.45 1005.50 1005.50 1005.45 1005.37 1005.27 1005.18 1005.09 1005.02 1004.95 1004.89 1004.81 1004.71 1004.58 1004.42 1004.25 1004.10 1003.98 1003.93
1011.04 1010.21 1009.39 1008.62 1007.93 1007.35 1006.87 1006.50 1006.20 1005.94 1005.71 1005.46 1005.20 1004.92 1004.63 1004.37 1004.15 1004.00 1003.93 1003.95 1004.03 1004.17 1004.32 1004.46 1004.57 1004.62 1004.61 1004.56 1004.47 1004.37 1004.28 1004.21 1004.17 1004.16 1004.18 1004.20 1004.21 1004.20 1004.16 1004.10 1004.04 1004.00 1004.00
1010.49 1009.65 1008.83 1008.08 1007.41 1006.84 1006.38 1006.01 1005.71 1005.43 1005.17 1004.88 1004.57 1004.24 1003.91 1003.61 1003.36 1003.18 1003.10 1003.10 1003.18 1003.32 1003.47 1003.61 1003.71 1003.75 1003.72 1003.65 1003.54 1003.42 1003.33 1003.27 1003.27 1003.32 1003.42 1003.55 1003.69 1003.82 1003.93 1004.02 1004.09 1004.15 1004.24
1009.99 1009.18 1008.39 1007.66 1007.01 1006.45 1005.99 1005.61 1005.28 1004.96 1004.65 1004.31 1003.94 1003.56 1003.19 1002.84 1002.57 1002.37 1002.28 1002.28 1002.35 1002.49 1002.63 1002.76 1002.84 1002.86 1002.82 1002.72 1002.58 1002.45 1002.35 1002.31 1002.35 1002.46 1002.65 1002.89 1003.17 1003.46 1003.73 1003.98 1004.20 1004.40 1004.60
1009.59 1008.81 1008.06 1007.35 1006.71 1006.15 1005.67 1005.25 1004.86 1004.49 1004.10 1003.69 1003.27 1002.83 1002.41 1002.04 1001.74 1001.53 1001.43 1001.43 1001.51 1001.63 1001.78 1001.89 1001.96 1001.97 1001.90 1001.78 1001.64 1001.50 1001.40 1001.38 1001.46 1001.64 1001.91 1002.27 1002.68 1003.11 1003.55 1003.96 1004.35 1004.69 1005.01
1009.28 1008.53 1007.81 1007.11 1006.47 1005.90 1005.37 1004.89 1004.43 1003.97 1003.51 1003.02 1002.53 1002.04 1001.58 1001.18 1000.86 1000.65 1000.55 1000.54 1000.62 1000.75 1000.89 1001.01 1001.07 1001.07 1001.00 1000.89 1000.75 1000.62 1000.54 1000.55 1000.67 1000.91 1001.26 1001.71 1002.23 1002.80 1003.38 1003.94 1004.47 1004.95 1005.40
1009.02 1008.30 1007.59 1006.90 1006.25 1005.63 1005.05 1004.50 1003.96 1003.42 1002.87 1002.30 1001.75 1001.21 1000.71 1000.29 999.97 999.75 999.65 999.65 999.73 999.86 1000.01 1000.13 1000.21 1000.22 1000.17 1000.08 999.97 999.87 999.83 999.87 1000.04 1000.32 1000.74 1001.26 1001.87 1002.53 1003.22 1003.89 1004.54 1005.14 1005.70
1008.77 1008.07 1007.36 1006.67 1005.99 1005.33 1004.70 1004.07 1003.45 1002.83 1002.21 1001.58 1000.97 1000.40 999.88 999.44 999.11 998.90 998.80 998.81 998.90 999.04 999.20 999.35 999.45 999.50 999.49 999.43 999.37 999.32 999.32 999.41 999.61 999.94 1000.39 1000.95 1001.61 1002.32 1003.07 1003.82 1004.55 1005.24 1005.87
1008.50 1007.81 1007.11 1006.40 1005.70 1005.00 1004.32 1003.63 1002.95 1002.27 1001.59 1000.92 1000.28 999.68 999.16 998.72 998.40 998.20 998.11 998.13 998.23 998.39 998.57 998.74 998.88 998.97 999.01 999.02 999.01 999.01 999.07 999.20 999.43 999.77 1000.24 1000.81 1001.47 1002.20 1002.96 1003.74 1004.50 1005.24 1005.92
Thickness
5771 5772 5771 5767 5763 5759 5752 5746 5741 5734 5728 5728 5730 5728 5728 5732 5733 5735 5735 5736 5734 5733 5731 5729 5728 5728 5727 5727 5727 5727 5727 5728 5730 5729 5730 5735 5740 5741 5740 5740 5738 5738 5738
5757 5757 5757 5755 5751 5749 5744 5741 5735 5732 5727 5724 5724 5724 5726 5727 5729 5731 5730 5731 5729 5728 5726 5725 5724 5723 5723 5723 5723 5722 5721 5723 5726 5723 5721 5720 5725 5731 5737 5735 5734 5733 5733
5743 5742 5743 5742 5742 5739 5735 5734 5728 5725 5723 5721 5720 5719 5720 5721 5722 5722 5723 5725 5725 5723 5722 5720 5720 5719 5719 5718 5718 5718 5717 5715 5719 5720 5716 5713 5711 5717 5725 5728 5728 5727 5725
5733 5733 5732 5732 5732 5729 5726 5722 5719 5717 5715 5714 5713 5712 5710 5709 5712 5714 5716 5718 5719 5718 5717 5715 5715 5715 5714 5714 5714 5715 5713 5712 5711 5713 5714 5714 5714 5711 5713 5718 5721 5721 5719
5724 5722 5722 5722 5721 5719 5716 5712 5709 5706 5705 5705 5705 5704 5702 5702 5704 5706 5708 5709 5710 5711 5710 5710 5710 5710 5710 5710 5710 5709 5709 5708 5708 5707 5707 5708 5709 5710 5707 5709 5712 5713 5713
5715 5714 5715 5714 5711 5707 5704 5700 5697 5694 5693 5693 5693 5692 5690 5690 5692 5693 5695 5698 5700 5701 5703 5704 5704 5704 5705 5704 5704 5704 5704 5704 5704 5704 5704 5703 5703 5704 5703 5705 5707 5706 5707
5708 5706 5705 5703 5700 5697 5693 5689 5685 5682 5681 5680 5680 5679 5678 5678 5677 5678 5680 5682 5685 5688 5691 5694 5696 5697 5698 5699 5699 5699 5699 5699 5699 5699 5700 5701 5702 5703 5702 5701 5703 5702 5702
5701 5699 5697 5694 5691 5687 5683 5678 5673 5669 5667 5666 5665 5664 5663 5663 5663 5664 5665 5667 5669 5673 5677 5680 5683 5686 5689 5690 5692 5692 5693 5693 5694 5695 5696 5696 5698 5699 5699 5699 5698 5698 5697
5694 5691 5688 5684 5679 5674 5670 5665 5660 5656 5653 5651 5649 5648 5648 5647 5647 5649 5650 5652 5654 5657 5660 5663 5667 5671 5675 5678 5681 5683 5685 5686 5688 5689 5691 5692 5694 5695 5696 5696 5695 5692 5691
5683 5680 5677 5672 5667 5662 5656 5650 5645 5641 5638 5636 5634 5633 5631 5631 5630 5631 5632 5635 5638 5640 5643 5646 5650 5655 5659 5664 5667 5671 5675 5677 5680 5682 5684 5686 5688 5690 5692 5692 5692 5691 5688
5674 5671 5667 5663 5657 5651 5643 5636 5629 5624 5620 5617 5615 5614 5613 5612 5612 5613 5615 5617 5620 5623 5626 5629 5633 5637 5643 5648 5653 5658 5663 5667 5671 5674 5677 5680 5682 5685 5687 5687 5688 5687 5686
5664 5659 5654 5648 5641 5634 5628 5621 5615 5609 5605 5601 5597 5594 5592 5590 5589 5591 5594 5597 5600 5604 5607 5611 5615 5620 5626 5631 5637 5643 5649 5654 5659 5664 5668 5672 5676 5678 5681 5682 5684 5684 5683
5650 5644 5637 5630 5624 5618 5611 5605 5600 5594 5590 5585 5580 5577 5574 5571 5571 5571 5574 5576 5579 5583 5588 5592 5597 5602 5608 5614 5621 5628 5635 5642 5648 5654 5659 5664 5668 5671 5674 5677 5679 5679 5680
5635 5628 5621 5615 5610 5604 5598 5592 5587 5582 5577 5572 5567 5564 5561 5559 5559 5558 5558 5559 5561 5564 5568 5573 5578 5584 5590 5598 5605 5613 5621 5629 5637 5644 5651 5657 5661 5665 5668 5671 5673 5674 5675
5624 5617 5609 5603 5596 5591 5586 5581 5577 5573 5569 5565 5560 5558 5556 5553 5551 5549 5549 5549 5549 5552 5554 5557 5561 5566 5573 5581 5588 5596 5606 5615 5624 5633 5641 5648 5654 5659 5662 5665 5667 5668 5670
5612 5605 5598 5591 5585 5580 5577 5573 5570 5568 5564 5560 5558 5556 5553 5550 5547 5546 5544 5543 5542 5543 5544 5546 5549 5553 5560 5567 5573 5580 5589 5599 5610 5620 5629 5637 5645 5651 5655 5659 5662 5664 5665
5599 5593 5587 5581 5576 5573 5570 5567 5566 5563 5559 5556 5554 5551 5549 5546 5544 5543 5541 5539 5538 5538 5538 5539 5541 5544 5548 5553 5559 5566 5574 5583 5595 5606 5617 5627 5635 5641 5645 5650 5654 5657 5660
5591 5585 5579 5575 5571 5568 5564 5561 5558 5554 5551 5548 5546 5544 5541 5539 5538 5536 5535 5534 5533 5533 5534 5535 5536 5537 5541 5545 5549 5555 5561 5569 5580 5593 5606 5616 5624 5631 5636 5640 5644 5648 5652
5581 5576 5571 5567 5562 5557 5553 5548 5544 5540 5536 5534 5532 5531 5530 5529 5528 5527 5527 5527 5527 5527 5529 5531 5532 5533 5535 5539 5542 5546 5550 5557 5567 5580 5594 5606 5615 5623 5628 5631 5635 5639 5642
5573 5567 5561 5554 5548 5543 5537 5531 5528 5524 5521 5520 5518 5517 5516 5516 5517 5518 5519 5520 5520 5522 5524 5526 5528 5530 5532 5535 5537 5540 5542 5547 5557 5569 5583 5595 5605 5612 5618 5624 5628 5631 5633
5564 5557 5549 5542 5535 5530 5524 5518 5513 5510 5508 5506 5504 5503 5502 5502 5504 5506 5509 5511 5513 5515 5518 5521 5524 5526 5529 5532 5534 5536 5536 5540 5548 5559 5572 5584 5593 5601 5608 5616 5621 5625 5626
5555 5548 5540 5532 5526 5519 5511 5506 5501 5498 5495 5492 5490 5489 5489 5490 5494 5495 5498 5501 5504 5507 5511 5514 5518 5522 5525 5529 5531 5533 5533 5536 5542 5552 5564 5574 5581 5590 5598 5606 5611 5614 5617
5547 5539 5531 5525 5518 5510 5502 5497 5495 5490 5486 5483 5480 5479 5479 5480 5481 5484 5488 5492 5496 5500 5505 5508 5512 5517 5521 5524 5528 5529 5530 5532 5537 5545 5556 5565 5572 5580 5589 5597 5601 5605 5608
5541 5534 5526 5519 5513 5506 5499 5492 5489 5484 5479 5476 5474 5473 5472 5473 5474 5476 5480 5484 5490 5494 5499 5504 5508 5513 5517 5520 5522 5524 5525 5527 5531 5538 5547 5555 5564 5574 5582 5587 5593 5597 5600
5538 5530 5522 5515 5509 5503 5497 5491 5486 5481 5477 5474 5472 5471 5469 5469 5470 5472 5476 5481 5486 5491 5496 5501 5506 5510 5514 5518 5520 5521 5522 5523 5527 5532 5540 5549 5558 5567 5574 5579 5584 5588 5591
5537 5529 5521 5513 5507 5502 5496 5491 5486 5481 5477 5474 5472 5471 5469 5469 5469 5471 5475 5480 5485 5491 5495 5501 5505 5510 5514 5516 5516 5516 5517 5518 5521 5529 5538 5548 5557 5565 5571 5576 5578 5582 5585